La Grange, TX

6:34 PM CDT on June 26, 2017 (GMT -0500)
La Grange

Weather History for K3T5 - February, 2014

Change the Weather History Date:

Thursday, February 27, 2014

  Actual Average (KAUS) Record (KAUS)
Temperature  
Mean Temperature 42 °F -  
Max Temperature 55 °F 63 °F 89 °F (2009)
Min Temperature 30 °F 42 °F 13 °F (2002)
Degree Days  
Heating Degree Days 22    
Moisture  
Dew Point 32 °F    
Average Humidity 69    
Maximum Humidity 96    
Minimum Humidity 42    
Precipitation  
Precipitation 0.00 in - - ()
Sea Level Pressure  
Sea Level Pressure 30.08 in    
Wind  
Wind Speed 2 mph (SSE)    
Max Wind Speed 9 mph    
Max Gust Speed -    
Visibility 10 miles    
Events      
Averages and records for this station are not official NWS values.
T = Trace of Precipitation, MM = Missing Value Source: NWS Daily Summary

Daily Weather History Graph

Daily Weather History Graph

Search for Another Location

Airport or City:

Trip Planner

Search our weather history database for the weather conditions in past years. The results will help you decide how hot, cold, wet, or windy it might be!

Date:

Astronomy

Feb. 27, 2014 Rise Set
Actual Time 6:55 AM CST 6:25 PM CST
Civil Twilight 6:31 AM CST 6:49 PM CST
Nautical Twilight 6:03 AM CST 7:17 PM CST
Astronomical Twilight 5:36 AM CST 7:45 PM CST
Moon 5:23 AM CST (2/27) 4:56 PM CST (2/27)
Length of Visible Light 12h 17m
Length of Day
11h 29m
Waning Crescent, 4% of the Moon is Illuminated
Feb 27
Waning Crescent
Mar 1
New
Mar 8
First Quarter
Mar 16
Full
Mar 23
Last Quarter

Hourly Weather History & Observations

Time (CST) Temp. Windchill Dew Point Humidity Pressure Visibility Wind Dir Wind Speed Gust Speed Precip Events Conditions
12:15 AM 34.7 °F 31.8 °F 30.6 °F 85% 30.17 in 10.0 mi NW 3.5 mph - N/A   Clear
12:35 AM 34.7 °F 31.8 °F 30.6 °F 85% 30.17 in 10.0 mi NNW 3.5 mph - N/A   Clear
12:55 AM 34.3 °F - 30.2 °F 85% 30.16 in 10.0 mi Calm Calm - N/A   Clear
1:15 AM 34.2 °F - 29.7 °F 84% 30.16 in 10.0 mi Calm Calm - N/A   Clear
1:35 AM 33.6 °F 30.6 °F 29.5 °F 85% 30.15 in 10.0 mi NW 3.5 mph - N/A   Clear
1:55 AM 33.4 °F - 29.7 °F 86% 30.15 in 10.0 mi Calm Calm - N/A   Clear
2:15 AM 32.9 °F - 30.2 °F 90% 30.15 in 10.0 mi Calm Calm - N/A   Clear
2:35 AM 32.7 °F - 30.9 °F 93% 30.15 in 10.0 mi Calm Calm - N/A   Clear
2:55 AM 32.0 °F - 30.2 °F 93% 30.15 in 10.0 mi Calm Calm - N/A   Clear
3:15 AM 32.0 °F - 30.0 °F 92% 30.14 in 10.0 mi Calm Calm - N/A   Clear
3:35 AM 32.2 °F - 29.3 °F 89% 30.14 in 10.0 mi Calm Calm - N/A   Clear
3:55 AM 32.0 °F - 29.8 °F 92% 30.14 in 10.0 mi Calm Calm - N/A   Clear
4:15 AM 32.0 °F - 29.5 °F 90% 30.14 in 10.0 mi Calm Calm - N/A   Clear
4:35 AM 32.0 °F - 29.1 °F 89% 30.14 in 10.0 mi Calm Calm - N/A   Clear
4:55 AM 31.8 °F - 30.0 °F 93% 30.14 in 10.0 mi Calm Calm - N/A   Clear
5:15 AM 31.8 °F - 29.3 °F 90% 30.14 in 10.0 mi Calm Calm - N/A   Clear
5:35 AM 31.1 °F - 29.7 °F 94% 30.14 in 10.0 mi Calm Calm - N/A   Clear
5:55 AM 31.6 °F - 29.8 °F 93% 30.14 in 10.0 mi Calm Calm - N/A   Clear
6:15 AM 30.9 °F - 29.3 °F 94% 30.14 in 10.0 mi Calm Calm - N/A   Clear
6:35 AM 30.2 °F - 29.1 °F 96% 30.15 in 10.0 mi Calm Calm - N/A   Clear
6:55 AM 30.4 °F - 29.3 °F 96% 30.16 in 10.0 mi Calm Calm - N/A   Clear
7:15 AM 30.9 °F - 29.3 °F 94% 30.17 in 10.0 mi Calm Calm - N/A   Clear
7:35 AM 32.0 °F - 30.4 °F 94% 30.16 in 10.0 mi Calm Calm - N/A   Clear
7:55 AM 33.6 °F - 30.0 °F 87% 30.17 in 10.0 mi Calm Calm - N/A   Clear
8:15 AM 34.5 °F - 30.2 °F 84% 30.17 in 10.0 mi Calm Calm - N/A   Clear
8:35 AM 36.7 °F - 28.9 °F 74% 30.18 in 10.0 mi Calm Calm - N/A   Clear
8:55 AM 37.9 °F - 29.3 °F 71% 30.19 in 10.0 mi Calm Calm - N/A   Clear
9:15 AM 39.7 °F - 29.5 °F 67% 30.20 in 10.0 mi Calm Calm - N/A   Clear
9:35 AM 40.6 °F - 29.1 °F 64% 30.20 in 10.0 mi Calm Calm - N/A   Clear
9:55 AM 42.1 °F - 28.8 °F 59% 30.20 in 10.0 mi Calm Calm - N/A   Clear
10:15 AM 43.7 °F - 30.2 °F 59% 30.20 in 10.0 mi Calm Calm - N/A   Clear
10:35 AM 45.1 °F 42.8 °F 28.8 °F 53% 30.19 in 10.0 mi East 4.6 mph - N/A   Clear
10:55 AM 45.9 °F - 27.9 °F 49% 30.18 in 10.0 mi Calm Calm - N/A   Clear
11:15 AM 46.2 °F - 28.4 °F 50% 30.17 in 10.0 mi Calm Calm - N/A   Clear
11:35 AM 47.7 °F - 28.9 °F 48% 30.16 in 10.0 mi NNE 3.5 mph - N/A   Clear
11:55 AM 47.7 °F - 28.9 °F 48% 30.15 in 10.0 mi Calm Calm - N/A   Clear
12:15 PM 48.2 °F - 29.1 °F 48% 30.13 in 10.0 mi Calm Calm - N/A   Clear
12:35 PM 50.2 °F - 31.8 °F 49% 30.13 in 10.0 mi SSE 3.5 mph - N/A   Clear
12:55 PM 50.4 °F - 31.5 °F 48% 30.11 in 10.0 mi SSE 3.5 mph - N/A   Clear
1:15 PM 50.7 °F - 30.7 °F 46% 30.10 in 10.0 mi Calm Calm - N/A   Clear
1:35 PM 51.3 °F - 31.5 °F 47% 30.08 in 10.0 mi South 4.6 mph - N/A   Clear
1:55 PM 52.5 °F - 31.8 °F 45% 30.07 in 10.0 mi SSW 6.9 mph - N/A   Clear
2:15 PM 52.2 °F - 31.6 °F 46% 30.06 in 10.0 mi SW 4.6 mph - N/A   Clear
2:40 PM 53.6 °F - 32.2 °F 44% 30.04 in 10.0 mi South 4.6 mph - N/A   Clear
2:55 PM 53.6 °F - 33.1 °F 46% 30.03 in 10.0 mi SSE 4.6 mph - N/A   Clear
3:15 PM 54.1 °F - 32.2 °F 43% 30.02 in 10.0 mi Calm Calm - N/A   Clear
3:35 PM 55.0 °F - 32.5 °F 43% 30.01 in 10.0 mi SE 5.8 mph - N/A   Clear
3:55 PM 55.4 °F - 33.3 °F 43% 30.00 in 10.0 mi SSE 5.8 mph - N/A   Clear
4:15 PM 55.4 °F - 32.7 °F 42% 29.99 in 10.0 mi South 4.6 mph - N/A   Clear
4:35 PM 55.2 °F - 32.7 °F 43% 29.98 in 10.0 mi SSE 4.6 mph - N/A   Clear
4:55 PM 55.4 °F - 33.4 °F 43% 29.97 in 10.0 mi SSE 6.9 mph - N/A   Clear
5:15 PM 55.4 °F - 33.6 °F 44% 29.98 in 10.0 mi South 4.6 mph - N/A   Clear
5:35 PM 54.9 °F - 33.3 °F 44% 29.97 in 10.0 mi SSE 5.8 mph - N/A   Clear
5:55 PM 54.1 °F - 33.1 °F 45% 29.97 in 10.0 mi South 5.8 mph - N/A   Clear
6:15 PM 52.7 °F - 34.7 °F 50% 29.97 in 10.0 mi South 4.6 mph - N/A   Clear
6:35 PM 50.9 °F - 35.6 °F 56% 29.96 in 10.0 mi Calm Calm - N/A   Clear
6:55 PM 50.2 °F - 36.0 °F 58% 29.96 in 10.0 mi Calm Calm - N/A   Clear
7:20 PM 46.8 °F - 39.2 °F 75% 29.96 in 10.0 mi Calm Calm - N/A   Clear
7:35 PM 46.6 °F - 39.7 °F 77% 29.97 in 10.0 mi Calm Calm - N/A   Clear
7:55 PM 46.9 °F - 36.7 °F 68% 29.97 in 10.0 mi SSE 3.5 mph - N/A   Clear
8:15 PM 47.7 °F - 36.9 °F 66% 29.96 in 10.0 mi Calm Calm - N/A   Clear
8:35 PM 46.9 °F - 36.9 °F 68% 29.96 in 10.0 mi SE 3.5 mph - N/A   Clear
8:55 PM 46.9 °F - 37.4 °F 69% 29.96 in 10.0 mi SSE 5.8 mph - N/A   Clear
9:15 PM 46.0 °F 44.8 °F 37.6 °F 72% 29.97 in 10.0 mi SSE 3.5 mph - N/A   Clear
9:35 PM 45.7 °F 42.0 °F 37.8 °F 74% 29.96 in 10.0 mi SSE 6.9 mph - N/A   Clear
9:55 PM 46.4 °F 42.4 °F 38.3 °F 73% 29.96 in 10.0 mi SSE 8.1 mph - N/A   Clear
10:15 PM 45.7 °F 41.5 °F 38.5 °F 76% 29.96 in 10.0 mi South 8.1 mph - N/A   Clear
10:35 PM 45.0 °F 40.1 °F 39.2 °F 80% 29.96 in 10.0 mi South 9.2 mph - N/A   Clear
10:55 PM 44.6 °F 40.2 °F 39.4 °F 82% 29.95 in 10.0 mi South 8.1 mph - N/A   Clear
11:15 PM 44.4 °F 40.0 °F 39.6 °F 83% 29.96 in 10.0 mi South 8.1 mph - N/A   Clear
11:35 PM 44.1 °F 40.1 °F 39.7 °F 85% 29.95 in 10.0 mi South 6.9 mph - N/A   Clear